Market Report

or Create your own market report

Harbour Town Home Sales Market Report

Past year activity for home sales in Harbour Town, Sea Pines, Hilton Head Island, SC


Active Properties
Address Beds Baths Living ft2 List Price Dom
5 Mizzenmast Lane 5 4 2,696 $2,599,000 N/A
40 Harleston Grn 4 5 2,652 $2,499,000 N/A
2054 Deer Island Road 2 2 960 $715,000 N/A
25 N Calibogue Cay Road 6 6 6,000 $4,999,999 N/A
Average: 4.3 4.3 3,077 $2,703,249
Viewing 1 - 4 of 4
Viewing 1 - 4 of 4
Properties Under Contract
Address Beds Baths Living ft2 List Price Dom
59 Stoney Creek Road 5 6 3,950 $3,448,000 N/A
Average: 5.0 6.0 3,950 $3,448,000
Viewing 1 - 1 of 1
Viewing 1 - 1 of 1
Sold Properties
Address Beds Baths Living ft2 List Price Sold Price Sold Date
37 Stoney Creek Road 3 4 2,626 $1,795,000 $1,795,000 5/10/22
32 Plantation Drive 3 4 2,975 $1,595,000 $1,625,000 5/6/22
16 Wisteria Lane 3 3 2,345 $1,275,000 $1,440,000 5/6/22
16 E Garrison Place 6 6 3,489 $2,499,500 $2,701,000 5/4/22
1 Ridgewood Lane 3 3 2,103 $949,999 $950,000 5/2/22
83 Plantation Drive 5 7 5,000 $2,599,000 $2,800,000 4/29/22
1 N Calibogue Cay Road 5 7 6,493 $6,300,000 $5,800,000 4/8/22
24 N Calibogue Cay Road 6 6 3,993 $1,995,000 $2,200,000 3/31/22
5 Mizzenmast Lane 5 4 2,696 $1,895,000 $1,901,000 3/25/22
71 N Calibogue Cay Road 5 7 5,958 $6,500,000 $6,500,000 3/24/22
19 Forest Drive 5 4 2,166 $835,000 $840,000 3/14/22
12 N Calibogue Cay Road 5 6 4,000 $3,495,000 $3,300,000 2/18/22
29 Saint Andrews Place 4 4 2,551 $857,000 $950,000 2/11/22
2060 Deer Island Road 2 2 816 $529,000 $529,000 2/9/22
46 Planters Wood Drive 3 4 2,835 $1,300,000 $1,300,000 1/13/22
47 Stoney Creek Road 4 3 2,913 $1,499,000 $1,355,000 12/28/21
5 Mizzenmast Lane 5 4 2,696 $875,000 $926,000 12/15/21
18 N Calibogue Cay Road 3 3 3,310 $1,950,000 $1,950,000 12/7/21
20 Stoney Creek Road 5 5 3,213 $1,995,000 $1,995,000 11/4/21
19 Spartina Crescent 4 5 3,801 $1,599,000 $1,629,000 10/8/21
2052 Deer Island Road 2 2 816 $510,000 $510,000 10/7/21
26 Old Military Road 5 5 3,907 $1,700,000 $1,750,000 9/13/21
29 Baynard Park Road 4 6 3,742 $3,496,000 $3,200,000 9/8/21
11 Planters Wood Court 4 3 2,464 $1,300,000 $1,160,000 8/27/21
8 Dewberry Lane 3 2 1,732 $725,000 $680,000 8/17/21
24 Spartina Crescent 3 4 3,278 $1,190,000 $1,145,000 8/9/21
67 Baynard Park Road 4 5 4,910 $4,500,000 $4,250,000 8/6/21
43 Heritage Road 4 4 4,076 $1,590,000 $1,560,000 8/2/21
13 Spartina Court 3 3 2,203 $799,900 $799,900 8/2/21
23 N Calibogue Cay Road 4 3 4,041 $2,399,000 $2,000,000 7/30/21
22 Windjammer Court 3 3 2,492 $989,000 $1,050,000 7/28/21
72 Baynard Cove Road 3 4 3,089 $1,700,000 $1,700,000 7/26/21
20 Turnberry Lane 5 5 5,800 $1,975,000 $1,810,000 7/23/21
26 N Calibogue Cay Road 3 2 2,320 $1,595,000 $1,595,000 7/15/21
16 Ridgewood Lane 4 6 4,760 $1,795,000 $1,760,000 7/13/21
9 N Calibogue Cay Road 4 5 4,679 $3,495,000 $3,400,000 7/12/21
26 Red Oak Road 5 5 4,190 $1,650,000 $1,537,500 6/28/21
69 N Calibogue Cay Road 4 5 6,243 $6,500,000 $5,400,000 6/24/21
32 Plantation Drive 3 4 2,975 $1,250,000 $1,163,250 6/22/21
12 Red Oak Road 3 3 3,196 $1,550,000 $1,550,000 6/21/21
2041 Deer Island Road 2 2 928 $499,000 $555,000 6/21/21
17 Columbine Lane 3 2 1,696 $799,000 $780,000 6/21/21
27 Gunnery Lane 3 3 2,000 $809,000 $800,000 6/15/21
30 N Calibogue Cay Road 4 5 3,296 $1,850,000 $1,850,000 6/11/21
34 Windjammer Court 3 3 2,393 $949,000 $1,100,000 6/11/21
9 Spartina Court 2 2 1,721 $639,000 $630,000 6/1/21
Average: 3.8 4.1 3,237 $1,925,899 $1,874,383
Viewing 1 - 46 of 46
Viewing 1 - 46 of 46
board logo

We do not attempt to independently verify the currency, completeness, accuracy or authenticity of the data contained herein. It may be subject to transcription and transmission errors. Accordingly, the data is provided on an “as is,” “as available” basis only and may not reflect all real estate activity in the market. © 2022 Multiple Listing Service of Hilton Head Island, Inc. All rights reserved. Certain information contained herein is derived from information which is the licensed property of, and copyrighted by, Multiple Listing Service of Hilton Head Island, Inc.